Weather in Tuguluk

Russia / Stavropol Krai     45°20′09″N   42°14′32″E
temp.,
°C
wind,
m/s
gust,
m/s
humid.,
%
clouds,
%
prec.,
mm/h
press.,
hPa
HPBL,
m
19 april, mon
mon1900:00+12s1190100 0.0 101515
03:00+12ssw2291100 0.1 101520
06:00+12w2291100 0.3 101522
09:00+13ssw3494100 2.5 1016197
12:00+17s3473100 0.8 1014777
15:00+17wnw4680100 1.6 1014446
18:00+14nnw2397100 2.1 1015114
21:00+13se3496100 2.5 101587
20 april, tue
tue2000:00+13se3696100 0.0 1013124
03:00+13ese71494100 0.2 1009469
06:00+11e51187100 0.0 1008361
09:00+13ese71280100 0.2 1007370
12:00+19se91367100 0.0 1004507
15:00+18se2477100 0.4 1002113
18:00+16wnw51088100 5.8 1007430
21:00+14w61189100 7.4 1011517
21 april, wed
wed2100:00+10w51479100 0.2 1013511
03:00+10w41280100 0.6 1015720
06:00+9wnw51290100 0.3 1017829
09:00+9wnw4986100 0.6 1018702
12:00+10nw3682100 2.5 1019606
15:00+11sw1379100 3.6 1019301
18:00+11sse2286100 0.1 102174
21:00+10s3490100 0.1 1022105
22 april, thu
thu2200:00+10ssw228961 0.0 102248
03:00+8ssw1189100 0.0 102210
06:00+9ssw0088100 0.0 102311
09:00+12ese3379100 0.0 1023446
12:00+10se4688100 0.1 1024356
15:00+11se588896 0.2 1024484
18:00+11sse598592 0.0 1024414
21:00+8sse358897 0.0 1024103
23 april, fri
fri2300:00+7se2291100 0.0 102421
03:00+7se2293100 0.3 102316
06:00+7se249311 0.3 102479
09:00+12se45755 0.3 1023534
12:00+16se336249 0.0 10211254
15:00+17e00536 0.3 10201434
18:00+16wsw11632 0.1 102015
21:00+12s33770 0.2 102142